Location: Chuathbaluk
(61.5726°N, 159.2454°W)
Time: 23:19:54
(UTC+00:00)

Transit 2A - Pass Details

Date: 05 December 2020
Orbit: 598 x 960 km, 66.7° (Epoch: 20 January)

Event Time Altitude Azimuth Distance (km) Brightness Sun altitude
Rises 10:40:59 0° 309° (NW) 3,380 - -50.8°
Reaches altitude 10° 10:43:39 10° 303° (WNW) 2,383 - -50.8°
Maximum altitude 10:48:44 42° 234° (SW) 1,061 - -50.7°
Drops below altitude 10° 10:53:19 10° 165° (SSE) 2,148 - -50.6°
Sets 10:55:36 0° 158° (SSE) 3,010 - -50.6°
